Theta_e
288 288 289 289 290 292 298 311 312 312 314 314 313 311 311 309 307 305 305 304 304 307
286 286 287 288 289 292 297 308 311 311 311 312 313 313 312 311 310 310 308 305 305 305
285 285 286 287 287 290 294 298 310 311 312 312 312 312 312 311 311 310 310 309 306 305
283 284 285 286 287 289 292 294 302 309 309 309 310 312 311 311 311 310 310 310 308 308
281 283 283 285 286 287 289 292 298 305 306 306 305 308 310 310 311 310 309 309 309 309
279 280 281 283 285 286 287 290 293 302 303 304 306 307 310 310 310 310 310 309 309 310
279 280 281 283 284 285 287 287 291 298 300 303 306 307 308 310 310 310 310 310 309 309
279 280 281 282 283 285 286 286 289 293 297 300 303 306 307 308 308 308 308 308 308 307
278 279 280 282 283 283 284 285 288 292 296 298 301 304 305 307 306 306 305 303 304 305
278 278 280 281 282 282 283 285 287 291 295 296 302 304 305 304 305 303 302 302 302 302
277 278 280 280 281 281 283 284 287 290 295 296 302 303 303 303 302 301 302 302 301 300
277 278 279 279 280 281 282 284 286 290 295 296 301 301 302 302 301 300 300 300 300 301
278 279 279 280 280 281 282 284 287 290 295 297 300 301 301 301 300 298 298 299 300 300
279 279 280 280 281 282 283 285 287 293 294 297 300 300 301 301 298 297 297 297 297 298
Wind_Speed
14 10 9 11 14 13 14 7 5 5 6 8 8 7 7 5 5 6 6 7 5 5
13 15 14 16 14 12 17 13 7 7 7 6 8 10 9 7 7 8 7 7 7 7
12 13 13 14 14 17 18 17 11 8 6 7 7 9 11 10 9 10 7 6 8 8
12 12 14 13 16 15 17 16 18 9 8 6 6 7 9 10 10 12 11 10 10 11
16 14 14 15 18 16 16 17 19 12 9 7 6 10 11 11 11 12 13 13 12 12
16 15 16 15 14 17 14 17 18 13 9 11 10 11 13 13 12 13 14 16 14 12
17 16 16 16 16 18 15 15 17 15 9 13 12 12 11 11 12 13 13 15 14 14
17 17 18 17 16 16 14 14 17 17 13 13 14 10 11 11 12 13 14 15 14 13
18 17 17 17 16 17 15 15 20 14 14 13 13 15 15 13 10 12 13 11 9 9
18 17 17 16 16 16 17 16 19 15 15 16 15 18 17 19 10 9 9 9 9 10
18 17 16 16 15 16 15 16 16 14 15 12 12 14 14 12 7 7 10 10 11 11
17 17 17 16 15 15 16 16 14 13 13 12 10 14 12 9 7 8 10 10 13 15
17 17 17 16 16 16 16 15 11 14 12 14 10 12 12 10 5 7 7 10 12 19
16 16 16 17 15 15 15 13 14 10 7 7 8 8 10 8 4 5 5 5 4 5
Wind_Direction
332 334 306 324 310 304 302 281 262 237 206 200 207 217 213 203 201 194 209 221 217 225
327 320 321 309 299 307 297 296 266 251 236 228 223 206 204 215 216 209 210 212 219 223
310 312 304 301 297 298 301 303 275 254 235 228 232 229 220 223 217 217 216 214 214 221
301 303 301 294 292 293 305 314 298 266 244 226 236 235 231 227 222 224 228 218 213 225
305 299 297 304 304 309 308 306 294 280 264 252 237 240 245 240 227 227 230 230 222 223
301 301 299 300 300 297 305 301 299 284 279 276 250 242 245 234 235 231 230 234 226 224
299 299 296 295 296 295 285 297 297 285 277 271 253 240 235 235 235 233 231 226 228 222
295 294 294 295 296 298 297 296 296 284 274 265 261 243 233 227 234 235 235 229 224 220
293 292 291 291 295 292 301 294 275 280 270 267 260 240 227 229 226 227 219 215 215 223
289 288 289 290 291 302 296 286 279 278 267 262 259 245 230 224 220 211 211 216 219 227
286 286 288 285 288 293 285 273 271 275 264 263 261 225 211 199 209 219 223 228 230 236
284 285 286 283 289 284 278 269 269 272 268 264 262 200 201 202 208 224 237 242 244 243
283 282 281 280 281 276 269 270 274 268 266 260 252 195 205 203 214 237 248 250 247 242
278 278 277 278 277 278 277 274 269 262 272 267 215 190 200 214 216 231 243 247 260 269